Regional Weather Roundup
Issued by NWS

Home | Current Version | Previous Version | Graphics & Text | Print | Product List | Glossary On
Versions: 1 2 3 4 5 6 7 8 9 10 11 12 13 14 15 16 17 18 19 20 21 22 23 24 25 26 27 28 29 30 31 32 33 34 35 36 37 38 39 40 41 42 43 44 45 46 47 48 49 50
000
ASUS43 KIND 270000
RWRIN

WEATHER ROUNDUP FOR INDIANA
NATIONAL WEATHER SERVICE INDIANAPOLIS IN
800 PM EDT SAT MAY 26 2018

NOTE: "FAIR" INDICATES FEW OR NO CLOUDS BELOW 12,000 FEET WITH NO
SIGNIFICANT WEATHER AND/OR OBSTRUCTIONS TO VISIBILITY.

* - STATION DOES NOT REPORT WEATHER SUCH AS PRECIPITATION OR FOG.

+ - STATION NOT QUALITY CONTROLLED BY THE NATIONAL WEATHER SERVICE.
    USE DATA WITH CAUTION...ESPECIALLY DEWPOINT AND RELATIVE
    HUMIDITY OBSERVATIONS.

INZ001>003-010>013-019-020-270100-
NORTHWEST INDIANA

CITY           SKY/WX    TMP DP  RH WIND       PRES   REMARKS
GARY /AIRPORT/ MOSUNNY   86  55  35 NE5       29.74F
KNOX *+        FAIR      86  61  42 NW5       29.75S
LA PORTE +     FAIR      83  62  48 NW3       29.77R
6HR MIN TEMP:  83; 6HR MAX TEMP:  85;

MICHIGAN CITY+ FAIR      81  57  44 CALM      29.76S
MONTICELLO +   FAIR      87  59  38 NW5       29.74S
6HR MIN TEMP:  80; 6HR MAX TEMP:  90;

RENSSELAER +   FAIR      88  39  18 W5        29.75R

$$

LMZ046-743>745-270100-
SOUTHERN LAKE MICHIGAN

STATION/POSITION TIME  TEMP    WIND        PRES    WAVE
                       AIR SEA DIR/SP/G            HT
                 (UTC) (F)     (DEG/KT/KT) (MB)    (FT)
BURNS HARBOR     2340   74      80/  8/ 10 1007.8S
MICHIGAN CITY    2330   77      40/  7/  7   N/A
5NW MICH CITY    2350   73 69   90/  4/  6   N/A     1

$$

INZ004-005-014>016-021>024-270100-
NORTH CENTRAL INDIANA

CITY           SKY/WX    TMP DP  RH WIND       PRES   REMARKS
GOSHEN         FAIR      82  56  40 NW10      29.77R
6HR MIN TEMP:  80; 6HR MAX TEMP:  87;

LOGANSPORT +   PTSUNNY   79  68  69 CALM      29.77S
PERU/GRISSOM   FAIR      84  65  51 CALM      29.76S
6HR MIN TEMP:  79; 6HR MAX TEMP:  86; 6HR PCP: TRACE;

ROCHESTER +    PTSUNNY   86  64  48 CALM      29.77R
SOUTH BEND     FAIR      82  61  48 NW3       29.77R
6HR MIN TEMP:  81; 6HR MAX TEMP:  85;

WARSAW +       FAIR      82  66  57 CALM      29.76S

$$

INZ006>009-017-018-025>027-270100-
NORTHEAST INDIANA

CITY           SKY/WX    TMP DP  RH WIND       PRES   REMARKS
ANGOLA *+      FAIR      82  64  54 CALM      29.77R
AUBURN +       FAIR      81  70  69 CALM      29.78S
FORT WAYNE     FAIR      85  66  53 W5        29.77R
6HR MIN TEMP:  80; 6HR MAX TEMP:  86;

HUNTINGTON +   MOCLDY    81  65  57 CALM      29.77S
6HR MIN TEMP:  77; 6HR MAX TEMP:  84;

KENDALLVILLE + FAIR      81  62  53 CALM      29.78R

$$

INZ028-029-035-036-043>045-051>053-270100-
WEST CENTRAL INDIANA

CITY           SKY/WX    TMP DP  RH WIND       PRES   REMARKS
CRAWFORDSVL +  FAIR      80  67  62 S7        29.77S
6HR MIN TEMP:  80; 6HR MAX TEMP:  87;

GREENCASTLE +  PTSUNNY   79  63  57 CALM      29.79S
LAFAYETTE      FAIR      83  67  58 SW3       29.75S
6HR MIN TEMP:  80; 6HR MAX TEMP:  86;

TERRE HAUTE    FAIR      85  65  51 SW6       29.77S
6HR MIN TEMP:  84; 6HR MAX TEMP:  90;


$$

INZ030>032-037>040-046>048-054>057-064-065-270100-
CENTRAL INDIANA

CITY           SKY/WX    TMP DP  RH WIND       PRES   REMARKS
ANDERSON       FAIR      83  62  48 CALM      29.78S
COLUMBUS       CLEAR     82  63  51 W7        29.78S
FRANKFORT +    FAIR     N/A N/A N/A NW7       29.79S
GREENWOOD *+   FAIR      83  65  56 W12       29.78S
6HR MIN TEMP:  80; 6HR MAX TEMP:  87;

INDIANAPOLIS   PTSUNNY   81  64  56 SW9       29.77S
6HR MIN TEMP:  81; 6HR MAX TEMP:  88;

-EAGLE CREEK   LGT RAIN  75  66  73 E9G18     29.78R
6HR MIN TEMP:  75; 6HR MAX TEMP:  88; 6HR PCP: TRACE;

KOKOMO +       FAIR      84  67  56 CALM      29.78S
6HR MIN TEMP:  78; 6HR MAX TEMP:  86;

MT COMFORT *+  FAIR      81  70  69 SW5       29.78S
SHELBYVILLE    FAIR      85  66  53 SW8       29.77S
6HR MIN TEMP:  82; 6HR MAX TEMP:  88;

ZIONSVILLE +   FAIR      79  65  62 SW9       29.79R
6HR MIN TEMP:  79; 6HR MAX TEMP:  87;


$$

INZ033-034-041-042-049-050-058-059-270100-
EAST CENTRAL INDIANA

CITY           SKY/WX    TMP DP  RH WIND       PRES   REMARKS
MUNCIE         FAIR      85  62  46 NW9       29.77S
6HR MIN TEMP:  73; 6HR MAX TEMP:  88; 6HR PCP:  0.07;

RICHMOND +     FAIR      79  68  69 W8        29.81R

$$

INZ060-061-067>069-081>083-085>088-270100-
SOUTHWEST INDIANA

CITY           SKY/WX    TMP DP  RH WIND       PRES   REMARKS
EVANSVILLE     FAIR      85  68  56 SW9       29.78S
6HR MIN TEMP:  84; 6HR MAX TEMP:  88;

HUNTINGBURG +  FAIR      85  67  54 SW8       29.79S
6HR MIN TEMP:  84; 6HR MAX TEMP:  88;

WASHINGTON +   PTSUNNY   80  65  59 SW3       29.77S
6HR MIN TEMP:  80; 6HR MAX TEMP:  89;


$$

INZ062-063-066-070>080-084-089>092-270100-
SOUTH CENTRAL AND SOUTHEAST INDIANA

CITY           SKY/WX    TMP DP  RH WIND       PRES   REMARKS
BLOOMINGTON    FAIR      81  69  67 SW6       29.79S
6HR MIN TEMP:  81; 6HR MAX TEMP:  87;

FRENCH LICK *+ FAIR      81  57  44 CALM      29.80S
SEYMOUR +      FAIR      86  64  48 W9        29.78S

$$





USA.gov is the U.S. government's official web portal to all federal, state and local government web resources and services.